Location: Courteuil
(49.2000°N, 2.5333°E)
Time: 05:13:43
(UTC+00:00)

USA 32 - Pass Details

Date: 06 September 2025
Orbit: 775 x 779 km, 85.0° (Epoch: 15 December)

Event Time Altitude Azimuth Distance (km) Brightness Sun altitude
Rises 19:16:58 0° 176° (S) 3,242 7.0 -9.5°
Reaches altitude 10° 19:19:19 10° 174° (S) 2,320 6.2 -9.9°
Maximum altitude 19:24:29 68° 92° (E) 837 4.0 -10.6°
Drops below altitude 10° 19:29:41 10° 11° (N) 2,341 6.7 -11.4°
Sets 19:32:04 0° 9° (N) 3,274 7.5 -11.8°
